Time,TemperatureF,DewpointF,PressureIn,WindDirection,WindDirectionDegrees,WindSpeedMPH,WindSpeedGustMPH,Humidity,HourlyPrecipIn,Conditions,Clouds,dailyrainin,SoftwareType,DateUTC
2013-07-17 00:04:00,66.2,53.2,30.08,NNW,347,0.0,0.0,63,0.00,CLR,,0.00,WeatherDisplay:10.37,2013-07-17 08:04:00,
2013-07-17 00:09:00,66.1,53.1,30.08,NNW,347,0.0,0.0,63,0.00,CLR,,0.00,WeatherDisplay:10.37,2013-07-17 08:09:00,
2013-07-17 00:14:00,66.1,53.1,30.08,NNW,347,0.0,0.0,63,0.00,CLR,,0.00,WeatherDisplay:10.37,2013-07-17 08:14:00,
2013-07-17 00:19:00,66.0,53.0,30.08,NNW,347,0.0,0.0,63,0.00,CLR,,0.00,WeatherDisplay:10.37,2013-07-17 08:19:00,
2013-07-17 00:24:00,66.0,53.0,30.08,NNW,347,0.0,0.0,63,0.00,CLR,,0.00,WeatherDisplay:10.37,2013-07-17 08:24:00,
2013-07-17 00:29:00,65.9,52.9,30.08,NNW,347,0.0,0.0,63,0.00,CLR,,0.00,WeatherDisplay:10.37,2013-07-17 08:29:00,
2013-07-17 00:34:00,66.0,53.0,30.08,NNW,348,0.0,0.0,63,0.00,CLR,,0.00,WeatherDisplay:10.37,2013-07-17 08:34:00,
2013-07-17 00:39:00,66.1,53.1,30.08,NNW,348,0.0,0.0,63,0.00,CLR,,0.00,WeatherDisplay:10.37,2013-07-17 08:39:00,
2013-07-17 00:44:00,66.1,52.7,30.08,NNW,348,0.0,0.0,62,0.00,CLR,,0.00,WeatherDisplay:10.37,2013-07-17 08:44:00,
2013-07-17 00:49:00,66.2,52.8,30.08,NNW,348,0.0,0.0,62,0.00,CLR,,0.00,WeatherDisplay:10.37,2013-07-17 08:49:00,
2013-07-17 00:54:00,66.3,52.9,30.08,NNW,348,0.0,0.0,62,0.00,CLR,,0.00,WeatherDisplay:10.37,2013-07-17 08:54:00,
2013-07-17 00:59:00,66.4,53.0,30.08,NNW,348,0.0,0.0,62,0.00,CLR,,0.00,WeatherDisplay:10.37,2013-07-17 08:59:00,
2013-07-17 01:04:00,66.3,52.9,30.09,NNW,348,0.0,0.0,62,0.00,CLR,,0.00,WeatherDisplay:10.37,2013-07-17 09:04:00,
2013-07-17 01:09:00,66.3,52.9,30.09,NNW,348,0.0,0.0,62,0.00,CLR,,0.00,WeatherDisplay:10.37,2013-07-17 09:09:00,
2013-07-17 01:14:00,66.2,52.8,30.09,NNW,348,0.0,0.0,62,0.00,CLR,,0.00,WeatherDisplay:10.37,2013-07-17 09:14:00,
2013-07-17 01:19:00,66.0,52.6,30.08,NNW,348,0.0,0.0,62,0.00,CLR,,0.00,WeatherDisplay:10.37,2013-07-17 09:19:00,
2013-07-17 01:24:00,65.6,52.7,30.08,NNW,348,0.0,0.0,63,0.00,CLR,,0.00,WeatherDisplay:10.37,2013-07-17 09:24:00,
2013-07-17 01:29:00,65.3,52.8,30.08,NNW,348,0.0,0.0,64,0.00,CLR,,0.00,WeatherDisplay:10.37,2013-07-17 09:29:00,
2013-07-17 01:34:00,64.9,52.8,30.08,NNW,348,0.0,0.0,65,0.00,CLR,,0.00,WeatherDisplay:10.37,2013-07-17 09:34:00,
2013-07-17 01:39:00,64.2,53.0,30.08,NNW,348,0.0,0.0,67,0.00,CLR,,0.00,WeatherDisplay:10.37,2013-07-17 09:39:00,
2013-07-17 01:44:00,63.6,52.4,30.08,NNW,348,0.0,0.0,67,0.00,CLR,,0.00,WeatherDisplay:10.37,2013-07-17 09:44:00,
2013-07-17 01:49:00,63.3,52.6,30.08,NNW,348,0.0,0.0,68,0.00,CLR,,0.00,WeatherDisplay:10.37,2013-07-17 09:49:00,
2013-07-17 01:54:00,63.1,52.8,30.08,NNW,348,0.0,0.0,69,0.00,CLR,,0.00,WeatherDisplay:10.37,2013-07-17 09:54:00,
2013-07-17 01:59:00,62.8,52.5,30.08,NNW,348,0.0,0.0,69,0.00,CLR,,0.00,WeatherDisplay:10.37,2013-07-17 09:59:00,
2013-07-17 02:04:00,62.2,52.3,30.08,NNW,348,0.0,0.0,70,0.00,CLR,,0.00,WeatherDisplay:10.37,2013-07-17 10:04:00,
2013-07-17 02:09:00,61.5,52.0,30.08,NNW,348,0.0,0.0,71,0.00,CLR,,0.00,WeatherDisplay:10.37,2013-07-17 10:09:00,
2013-07-17 02:14:00,61.1,52.0,30.07,NNW,348,0.0,0.0,72,0.00,CLR,,0.00,WeatherDisplay:10.37,2013-07-17 10:14:00,
2013-07-17 02:19:00,60.6,51.9,30.07,NNW,348,0.0,0.0,73,0.00,CLR,,0.00,WeatherDisplay:10.37,2013-07-17 10:19:00,
2013-07-17 02:24:00,60.2,51.9,30.07,NNW,348,0.0,0.0,74,0.00,CLR,,0.00,WeatherDisplay:10.37,2013-07-17 10:24:00,
2013-07-17 02:29:00,59.8,51.9,30.07,NNW,348,0.0,0.0,75,0.00,CLR,,0.00,WeatherDisplay:10.37,2013-07-17 10:29:00,
2013-07-17 02:34:00,59.3,51.7,30.07,NNW,348,0.0,0.0,76,0.00,CLR,,0.00,WeatherDisplay:10.37,2013-07-17 10:34:00,
2013-07-17 02:39:00,59.0,51.4,30.08,NNW,348,0.0,0.0,76,0.00,CLR,,0.00,WeatherDisplay:10.37,2013-07-17 10:39:00,
2013-07-17 02:44:00,58.9,51.7,30.08,NNW,348,0.0,0.0,77,0.00,CLR,,0.00,WeatherDisplay:10.37,2013-07-17 10:44:00,
2013-07-17 02:49:00,58.6,51.4,30.08,NNW,348,0.0,0.0,77,0.00,CLR,,0.00,WeatherDisplay:10.37,2013-07-17 10:49:00,
2013-07-17 02:54:00,58.4,51.2,30.08,NNW,348,0.0,0.0,77,0.00,CLR,,0.00,WeatherDisplay:10.37,2013-07-17 10:54:00,
2013-07-17 02:59:00,58.6,51.4,30.08,NNW,348,0.0,0.0,77,0.00,CLR,,0.00,WeatherDisplay:10.37,2013-07-17 10:59:00,
2013-07-17 03:04:00,58.7,51.5,30.08,NNW,348,0.0,0.0,77,0.00,CLR,,0.00,WeatherDisplay:10.37,2013-07-17 11:04:00,
2013-07-17 03:09:00,58.7,51.5,30.08,NNW,348,0.0,0.0,77,0.00,CLR,,0.00,WeatherDisplay:10.37,2013-07-17 11:09:00,
2013-07-17 03:14:00,58.4,51.2,30.08,NNW,348,0.0,0.0,77,0.00,CLR,,0.00,WeatherDisplay:10.37,2013-07-17 11:14:00,
2013-07-17 03:19:00,58.3,51.5,30.08,NNW,348,0.0,0.0,78,0.00,CLR,,0.00,WeatherDisplay:10.37,2013-07-17 11:19:00,
2013-07-17 03:24:00,58.2,51.0,30.08,NNW,348,0.0,0.0,77,0.00,CLR,,0.00,WeatherDisplay:10.37,2013-07-17 11:24:00,
2013-07-17 03:29:00,58.2,51.0,30.08,NNW,348,0.0,0.0,77,0.00,CLR,,0.00,WeatherDisplay:10.37,2013-07-17 11:29:00,
2013-07-17 03:34:00,58.1,50.9,30.08,NNW,348,0.0,0.0,77,0.00,CLR,,0.00,WeatherDisplay:10.37,2013-07-17 11:34:00,
2013-07-17 03:39:00,58.0,51.2,30.07,NNW,348,0.0,0.0,78,0.00,CLR,,0.00,WeatherDisplay:10.37,2013-07-17 11:39:00,
2013-07-17 03:44:00,57.9,51.1,30.07,NNW,348,0.0,0.0,78,0.00,CLR,,0.00,WeatherDisplay:10.37,2013-07-17 11:44:00,
2013-07-17 03:49:00,57.9,51.4,30.07,NNW,348,0.0,0.0,79,0.00,CLR,,0.00,WeatherDisplay:10.37,2013-07-17 11:49:00,
2013-07-17 03:54:00,58.0,51.5,30.07,NNW,348,0.0,0.0,79,0.00,CLR,,0.00,WeatherDisplay:10.37,2013-07-17 11:54:00,
2013-07-17 03:59:00,58.0,51.5,30.07,NNW,348,0.0,0.0,79,0.00,CLR,,0.00,WeatherDisplay:10.37,2013-07-17 11:59:00,
2013-07-17 04:04:00,58.1,51.6,30.07,NNW,348,0.0,0.0,79,0.00,CLR,,0.00,WeatherDisplay:10.37,2013-07-17 12:04:00,
2013-07-17 04:09:00,58.1,51.6,30.07,NNW,348,0.0,0.0,79,0.00,CLR,,0.00,WeatherDisplay:10.37,2013-07-17 12:09:00,
2013-07-17 04:14:00,57.9,51.4,30.06,NNW,348,0.0,0.0,79,0.00,CLR,,0.00,WeatherDisplay:10.37,2013-07-17 12:14:00,
2013-07-17 04:19:00,58.4,51.6,30.06,NNW,348,0.0,0.0,78,0.00,CLR,,0.00,WeatherDisplay:10.37,2013-07-17 12:19:00,
2013-07-17 04:24:00,58.5,51.7,30.06,NNW,348,0.0,0.0,78,0.00,CLR,,0.00,WeatherDisplay:10.37,2013-07-17 12:24:00,
2013-07-17 04:29:00,58.4,51.2,30.06,NNW,348,0.0,0.0,77,0.00,CLR,,0.00,WeatherDisplay:10.37,2013-07-17 12:29:00,
2013-07-17 04:34:00,58.3,51.1,30.06,NNW,348,0.0,0.0,77,0.00,CLR,,0.00,WeatherDisplay:10.37,2013-07-17 12:34:00,
2013-07-17 04:39:00,58.2,51.4,30.06,NNW,348,0.0,0.0,78,0.00,CLR,,0.00,WeatherDisplay:10.37,2013-07-17 12:39:00,
2013-07-17 04:44:00,58.7,51.5,30.06,NNW,348,0.0,0.0,77,0.00,CLR,,0.00,WeatherDisplay:10.37,2013-07-17 12:44:00,
2013-07-17 04:49:00,59.0,51.8,30.06,NNW,348,0.0,0.0,77,0.00,CLR,,0.00,WeatherDisplay:10.37,2013-07-17 12:49:00,
2013-07-17 04:54:00,59.1,51.5,30.06,NNW,348,0.0,0.0,76,0.00,CLR,,0.00,WeatherDisplay:10.37,2013-07-17 12:54:00,
2013-07-17 04:59:00,60.0,52.1,30.06,NNW,348,0.0,0.0,75,0.00,CLR,,0.00,WeatherDisplay:10.37,2013-07-17 12:59:00,
2013-07-17 05:04:00,60.4,52.1,30.07,NNW,348,0.0,0.0,74,0.00,CLR,,0.00,WeatherDisplay:10.37,2013-07-17 13:04:00,
2013-07-17 05:09:00,60.1,51.8,30.06,NNW,348,0.0,0.0,74,0.00,CLR,,0.00,WeatherDisplay:10.37,2013-07-17 13:09:00,
2013-07-17 05:14:00,59.5,51.2,30.06,NNW,348,0.0,0.0,74,0.00,CLR,,0.00,WeatherDisplay:10.37,2013-07-17 13:14:00,
2013-07-17 05:19:00,59.0,51.8,30.06,NNW,348,0.0,0.0,77,0.00,CLR,,0.00,WeatherDisplay:10.37,2013-07-17 13:19:00,
2013-07-17 05:24:00,58.4,51.2,30.06,NNW,348,0.0,0.0,77,0.00,CLR,,0.00,WeatherDisplay:10.37,2013-07-17 13:24:00,
2013-07-17 05:29:00,57.8,51.0,30.06,NNW,348,0.0,0.0,78,0.00,CLR,,0.00,WeatherDisplay:10.37,2013-07-17 13:29:00,
2013-07-17 05:34:00,57.5,51.0,30.06,NNW,348,0.0,0.0,79,0.00,CLR,,0.00,WeatherDisplay:10.37,2013-07-17 13:34:00,
2013-07-17 05:39:00,57.3,51.2,30.06,NNW,348,0.0,0.0,80,0.00,CLR,,0.00,WeatherDisplay:10.37,2013-07-17 13:39:00,
2013-07-17 05:44:00,57.1,51.0,30.06,NNW,348,0.0,0.0,80,0.00,CLR,,0.00,WeatherDisplay:10.37,2013-07-17 13:44:00,
2013-07-17 05:49:00,57.2,51.1,30.06,NNW,348,0.0,0.0,80,0.00,CLR,,0.00,WeatherDisplay:10.37,2013-07-17 13:49:00,
2013-07-17 05:54:00,57.1,51.0,30.06,NNW,348,0.0,0.0,80,0.00,CLR,,0.00,WeatherDisplay:10.37,2013-07-17 13:54:00,
2013-07-17 05:59:00,57.2,51.1,30.06,NNW,348,0.0,0.0,80,0.00,CLR,,0.00,WeatherDisplay:10.37,2013-07-17 13:59:00,
2013-07-17 06:04:00,57.3,51.2,30.06,NNW,348,0.0,0.0,80,0.00,CLR,,0.00,WeatherDisplay:10.37,2013-07-17 14:04:00,
2013-07-17 06:09:00,57.4,51.3,30.06,NNW,348,0.0,0.0,80,0.00,CLR,,0.00,WeatherDisplay:10.37,2013-07-17 14:09:00,
2013-07-17 06:14:00,57.4,51.6,30.06,NNW,348,0.0,0.0,81,0.00,CLR,,0.00,WeatherDisplay:10.37,2013-07-17 14:14:00,
2013-07-17 06:19:00,57.3,51.5,30.06,NNW,348,0.0,0.0,81,0.00,CLR,,0.00,WeatherDisplay:10.37,2013-07-17 14:19:00,
2013-07-17 06:24:00,57.5,51.4,30.06,NNW,348,0.0,0.0,80,0.00,CLR,,0.00,WeatherDisplay:10.37,2013-07-17 14:24:00,
2013-07-17 06:29:00,58.2,51.7,30.06,NNW,348,0.0,0.0,79,0.00,CLR,,0.00,WeatherDisplay:10.37,2013-07-17 14:29:00,
2013-07-17 06:34:00,58.9,52.7,30.05,NNW,348,0.0,0.0,80,0.00,CLR,,0.00,WeatherDisplay:10.37,2013-07-17 14:34:00,
2013-07-17 06:39:00,59.0,52.1,30.05,NNW,348,0.0,0.0,78,0.00,CLR,,0.00,WeatherDisplay:10.37,2013-07-17 14:39:00,
2013-07-17 06:44:00,59.0,51.4,30.05,NNW,348,0.0,0.0,76,0.00,CLR,,0.00,WeatherDisplay:10.37,2013-07-17 14:44:00,
2013-07-17 06:49:00,59.0,51.4,30.05,NNW,348,0.0,0.0,76,0.00,CLR,,0.00,WeatherDisplay:10.37,2013-07-17 14:49:00,
2013-07-17 06:54:00,59.0,51.8,30.05,NNW,348,0.0,0.0,77,0.00,CLR,,0.00,WeatherDisplay:10.37,2013-07-17 14:54:00,
2013-07-17 06:59:00,59.0,51.8,30.05,NNW,348,0.0,0.0,77,0.00,CLR,,0.00,WeatherDisplay:10.37,2013-07-17 14:59:00,
2013-07-17 07:04:00,59.0,52.1,30.05,NNW,348,0.0,0.0,78,0.00,CLR,,0.00,WeatherDisplay:10.37,2013-07-17 15:04:00,
2013-07-17 07:09:00,59.0,52.8,30.05,NNW,348,0.0,0.0,80,0.00,CLR,,0.00,WeatherDisplay:10.37,2013-07-17 15:09:00,
2013-07-17 07:14:00,59.0,52.1,30.05,NNW,348,0.0,0.0,78,0.00,CLR,,0.00,WeatherDisplay:10.37,2013-07-17 15:14:00,
2013-07-17 07:19:00,59.0,51.8,30.05,NNW,348,0.0,0.0,77,0.00,CLR,,0.00,WeatherDisplay:10.37,2013-07-17 15:19:00,
2013-07-17 07:24:00,58.9,51.7,30.05,NNW,348,0.0,0.0,77,0.00,CLR,,0.00,WeatherDisplay:10.37,2013-07-17 15:24:00,
2013-07-17 07:29:00,58.7,51.5,30.05,NNW,348,0.0,0.0,77,0.00,CLR,,0.00,WeatherDisplay:10.37,2013-07-17 15:29:00,
2013-07-17 07:34:00,58.6,51.4,30.05,NNW,348,0.0,0.0,77,0.00,CLR,,0.00,WeatherDisplay:10.37,2013-07-17 15:34:00,
2013-07-17 07:39:00,58.9,52.4,30.06,NNW,348,0.0,0.0,79,0.00,CLR,,0.00,WeatherDisplay:10.37,2013-07-17 15:39:00,
2013-07-17 07:44:00,59.1,52.2,30.06,NNW,348,0.0,0.0,78,0.00,CLR,,0.00,WeatherDisplay:10.37,2013-07-17 15:44:00,
2013-07-17 07:49:00,59.8,52.6,30.06,NNW,348,0.0,0.0,77,0.00,CLR,,0.00,WeatherDisplay:10.37,2013-07-17 15:49:00,
2013-07-17 07:54:00,60.2,52.2,30.06,NNW,348,0.0,0.0,75,0.00,CLR,,0.00,WeatherDisplay:10.37,2013-07-17 15:54:00,
2013-07-17 07:59:00,60.6,53.0,30.06,NNW,348,0.0,0.0,76,0.00,CLR,,0.00,WeatherDisplay:10.37,2013-07-17 15:59:00,
2013-07-17 08:04:00,61.1,54.2,30.06,NNW,348,0.0,0.0,78,0.00,CLR,,0.00,WeatherDisplay:10.37,2013-07-17 16:04:00,
2013-07-17 08:09:00,61.3,54.0,30.06,NNW,348,0.0,0.0,77,0.00,CLR,,0.00,WeatherDisplay:10.37,2013-07-17 16:09:00,
2013-07-17 08:14:00,61.8,54.2,30.06,NNW,348,0.0,0.0,76,0.00,CLR,,0.00,WeatherDisplay:10.37,2013-07-17 16:14:00,
2013-07-17 08:19:00,62.1,53.3,30.05,NNW,348,0.0,0.0,73,0.00,CLR,,0.00,WeatherDisplay:10.37,2013-07-17 16:19:00,
2013-07-17 08:24:00,62.3,53.2,30.05,NNW,348,0.0,0.0,72,0.00,CLR,,0.00,WeatherDisplay:10.37,2013-07-17 16:24:00,
2013-07-17 08:29:00,62.6,53.4,30.05,NNW,348,0.0,0.0,72,0.00,CLR,,0.00,WeatherDisplay:10.37,2013-07-17 16:29:00,
2013-07-17 08:34:00,63.2,54.4,30.05,NNW,348,0.0,0.0,73,0.00,CLR,,0.00,WeatherDisplay:10.37,2013-07-17 16:34:00,
2013-07-17 08:39:00,64.1,54.9,30.05,NNW,348,0.0,0.0,72,0.00,CLR,,0.00,WeatherDisplay:10.37,2013-07-17 16:39:00,
2013-07-17 08:44:00,64.7,54.3,30.05,NNW,348,0.0,0.0,69,0.00,CLR,,0.00,WeatherDisplay:10.37,2013-07-17 16:44:00,
2013-07-17 08:49:00,64.8,54.0,30.05,NNW,348,0.0,0.0,68,0.00,CLR,,0.00,WeatherDisplay:10.37,2013-07-17 16:49:00,
2013-07-17 08:54:00,64.6,54.2,30.05,NNW,348,0.0,0.0,69,0.00,CLR,,0.00,WeatherDisplay:10.37,2013-07-17 16:54:00,
2013-07-17 08:59:00,64.5,54.5,30.05,NNW,348,0.0,0.0,70,0.00,CLR,,0.00,WeatherDisplay:10.37,2013-07-17 16:59:00,
2013-07-17 09:04:00,64.7,54.7,30.05,NNW,348,0.0,0.0,70,0.00,CLR,,0.00,WeatherDisplay:10.37,2013-07-17 17:04:00,
2013-07-17 09:09:00,65.0,55.0,30.05,NNW,348,0.0,0.0,70,0.00,CLR,,0.00,WeatherDisplay:10.37,2013-07-17 17:09:00,
2013-07-17 09:14:00,65.4,55.7,30.05,NNW,348,0.0,0.0,71,0.00,CLR,,0.00,WeatherDisplay:10.37,2013-07-17 17:14:00,
2013-07-17 09:19:00,65.6,55.2,30.04,NNW,348,0.0,0.0,69,0.00,CLR,,0.00,WeatherDisplay:10.37,2013-07-17 17:19:00,
2013-07-17 09:24:00,65.6,55.2,30.05,NNW,348,0.0,0.0,69,0.00,CLR,,0.00,WeatherDisplay:10.37,2013-07-17 17:24:00,
2013-07-17 09:29:00,65.8,55.3,30.04,NNW,348,0.0,0.0,69,0.00,CLR,,0.00,WeatherDisplay:10.37,2013-07-17 17:29:00,
2013-07-17 09:34:00,66.1,55.6,30.04,NNW,348,0.0,0.0,69,0.00,CLR,,0.00,WeatherDisplay:10.37,2013-07-17 17:34:00,
2013-07-17 09:39:00,66.4,55.5,30.04,NNW,348,0.0,0.0,68,0.00,CLR,,0.00,WeatherDisplay:10.37,2013-07-17 17:39:00,
2013-07-17 09:44:00,66.5,55.2,30.04,NNW,348,0.0,0.0,67,0.00,CLR,,0.00,WeatherDisplay:10.37,2013-07-17 17:44:00,
2013-07-17 09:49:00,66.7,55.4,30.04,NNW,348,0.0,0.0,67,0.00,CLR,,0.00,WeatherDisplay:10.37,2013-07-17 17:49:00,
2013-07-17 09:54:00,67.0,55.3,30.04,NNW,348,0.0,0.0,66,0.00,CLR,,0.00,WeatherDisplay:10.37,2013-07-17 17:54:00,
2013-07-17 09:59:00,67.2,55.0,30.04,NNW,348,0.0,0.0,65,0.00,CLR,,0.00,WeatherDisplay:10.37,2013-07-17 17:59:00,
2013-07-17 10:04:00,66.6,54.9,30.05,NNW,348,0.0,0.0,66,0.00,CLR,,0.00,WeatherDisplay:10.37,2013-07-17 18:04:00,
2013-07-17 10:09:00,66.1,54.8,30.05,NNW,348,0.0,0.0,67,0.00,CLR,,0.00,WeatherDisplay:10.37,2013-07-17 18:09:00,
2013-07-17 10:14:00,66.1,56.0,30.04,NNW,348,0.0,0.0,70,0.00,CLR,,0.00,WeatherDisplay:10.37,2013-07-17 18:14:00,
2013-07-17 10:19:00,66.7,56.2,30.05,NNW,348,0.0,0.0,69,0.00,CLR,,0.00,WeatherDisplay:10.37,2013-07-17 18:19:00,
2013-07-17 10:24:00,67.9,55.7,30.04,NNW,348,0.0,0.0,65,0.00,CLR,,0.00,WeatherDisplay:10.37,2013-07-17 18:24:00,
2013-07-17 10:29:00,68.8,57.0,30.04,NNW,348,0.0,0.0,66,0.00,CLR,,0.00,WeatherDisplay:10.37,2013-07-17 18:29:00,
2013-07-17 10:34:00,69.4,56.3,30.04,NNW,348,0.0,0.0,63,0.00,CLR,,0.00,WeatherDisplay:10.37,2013-07-17 18:34:00,
2013-07-17 10:39:00,69.6,56.0,30.04,NNW,348,0.0,0.0,62,0.00,CLR,,0.00,WeatherDisplay:10.37,2013-07-17 18:39:00,
2013-07-17 10:44:00,69.9,55.8,30.04,NNW,348,0.0,0.0,61,0.00,CLR,,0.00,WeatherDisplay:10.37,2013-07-17 18:44:00,
2013-07-17 10:49:00,70.2,55.7,30.04,NNW,348,0.0,0.0,60,0.00,CLR,,0.00,WeatherDisplay:10.37,2013-07-17 18:49:00,
2013-07-17 10:54:00,70.4,56.3,30.04,NNW,348,0.0,0.0,61,0.00,CLR,,0.00,WeatherDisplay:10.37,2013-07-17 18:54:00,
2013-07-17 10:59:00,70.7,55.2,30.04,NNW,348,0.0,0.0,58,0.00,CLR,,0.00,WeatherDisplay:10.37,2013-07-17 18:59:00,
2013-07-17 11:04:00,71.0,55.5,30.04,NNW,348,0.0,0.0,58,0.00,CLR,,0.00,WeatherDisplay:10.37,2013-07-17 19:04:00,
2013-07-17 11:09:00,71.3,56.2,30.04,NNW,348,0.0,0.0,59,0.00,CLR,,0.00,WeatherDisplay:10.37,2013-07-17 19:09:00,
2013-07-17 11:14:00,71.7,56.1,30.04,NNW,348,0.0,0.0,58,0.00,CLR,,0.00,WeatherDisplay:10.37,2013-07-17 19:14:00,
2013-07-17 11:19:00,72.0,56.4,30.04,NNW,348,0.0,0.0,58,0.00,CLR,,0.00,WeatherDisplay:10.37,2013-07-17 19:19:00,
2013-07-17 11:24:00,72.4,56.3,30.04,NNW,348,0.0,0.0,57,0.00,CLR,,0.00,WeatherDisplay:10.37,2013-07-17 19:24:00,
2013-07-17 11:29:00,72.4,56.3,30.04,NNW,348,0.0,0.0,57,0.00,CLR,,0.00,WeatherDisplay:10.37,2013-07-17 19:29:00,
2013-07-17 11:34:00,72.4,56.3,30.04,NNW,347,0.0,0.0,57,0.00,CLR,,0.00,WeatherDisplay:10.37,2013-07-17 19:34:00,
2013-07-17 11:39:00,72.5,55.9,30.04,NNW,348,0.0,0.0,56,0.00,CLR,,0.00,WeatherDisplay:10.37,2013-07-17 19:39:00,
2013-07-17 11:44:00,72.4,55.3,30.04,NNW,347,0.0,0.0,55,0.00,CLR,,0.00,WeatherDisplay:10.37,2013-07-17 19:44:00,
2013-07-17 11:49:00,72.4,56.3,30.04,NNW,347,0.0,0.0,57,0.00,CLR,,0.00,WeatherDisplay:10.37,2013-07-17 19:49:00,
2013-07-17 11:54:00,72.7,56.1,30.04,NNW,348,0.0,0.0,56,0.00,CLR,,0.00,WeatherDisplay:10.37,2013-07-17 19:54:00,
2013-07-17 11:59:00,72.8,56.2,30.05,NNW,347,0.0,0.0,56,0.00,CLR,,0.00,WeatherDisplay:10.37,2013-07-17 19:59:00,
2013-07-17 12:04:00,72.7,55.6,30.04,NNW,347,0.0,0.0,55,0.00,CLR,,0.00,WeatherDisplay:10.37,2013-07-17 20:04:00,
2013-07-17 12:09:00,72.8,56.7,30.04,NNW,347,0.0,0.0,57,0.00,CLR,,0.00,WeatherDisplay:10.37,2013-07-17 20:09:00,
2013-07-17 12:14:00,72.7,56.1,30.04,NNW,347,0.0,0.0,56,0.00,CLR,,0.00,WeatherDisplay:10.37,2013-07-17 20:14:00,
2013-07-17 12:19:00,72.5,56.4,30.04,NNW,347,0.0,0.0,57,0.00,CLR,,0.00,WeatherDisplay:10.37,2013-07-17 20:19:00,
2013-07-17 12:24:00,72.4,56.8,30.04,NNW,347,0.0,0.0,58,0.00,CLR,,0.00,WeatherDisplay:10.37,2013-07-17 20:24:00,
2013-07-17 12:29:00,72.5,56.4,30.03,NNW,347,0.0,0.0,57,0.00,CLR,,0.00,WeatherDisplay:10.37,2013-07-17 20:29:00,
2013-07-17 12:34:00,72.4,56.8,30.03,NNW,347,0.0,0.0,58,0.00,CLR,,0.00,WeatherDisplay:10.37,2013-07-17 20:34:00,
2013-07-17 12:39:00,72.7,56.6,30.03,NNW,347,0.0,0.0,57,0.00,CLR,,0.00,WeatherDisplay:10.37,2013-07-17 20:39:00,
2013-07-17 12:44:00,73.0,56.9,30.03,NNW,347,0.0,0.0,57,0.00,CLR,,0.00,WeatherDisplay:10.37,2013-07-17 20:44:00,
2013-07-17 12:49:00,73.6,57.4,30.03,NNW,347,0.0,0.0,57,0.00,CLR,,0.00,WeatherDisplay:10.37,2013-07-17 20:49:00,
2013-07-17 12:54:00,73.9,57.2,30.03,NNW,347,0.0,0.0,56,0.00,CLR,,0.00,WeatherDisplay:10.37,2013-07-17 20:54:00,
2013-07-17 12:59:00,73.4,57.2,30.03,NNW,347,0.0,0.0,57,0.00,CLR,,0.00,WeatherDisplay:10.37,2013-07-17 20:59:00,
2013-07-17 13:04:00,73.0,56.9,30.03,NNW,347,0.0,0.0,57,0.00,CLR,,0.00,WeatherDisplay:10.37,2013-07-17 21:04:00,
2013-07-17 13:09:00,73.1,57.4,30.03,NNW,347,0.0,0.0,58,0.00,CLR,,0.00,WeatherDisplay:10.37,2013-07-17 21:09:00,
2013-07-17 13:14:00,73.2,56.6,30.03,NNW,347,0.0,0.0,56,0.00,CLR,,0.00,WeatherDisplay:10.37,2013-07-17 21:14:00,
2013-07-17 13:19:00,73.1,57.0,30.02,NNW,347,0.0,0.0,57,0.00,CLR,,0.00,WeatherDisplay:10.37,2013-07-17 21:19:00,
2013-07-17 13:24:00,73.5,57.3,30.02,NNW,347,0.0,0.0,57,0.00,CLR,,0.00,WeatherDisplay:10.37,2013-07-17 21:24:00,
2013-07-17 13:29:00,74.0,57.8,30.02,NNW,347,0.0,0.0,57,0.00,CLR,,0.00,WeatherDisplay:10.37,2013-07-17 21:29:00,
2013-07-17 13:34:00,74.1,57.4,30.02,NNW,347,0.0,0.0,56,0.00,CLR,,0.00,WeatherDisplay:10.37,2013-07-17 21:34:00,
2013-07-17 13:39:00,74.3,58.1,30.02,NNW,347,0.0,0.0,57,0.00,CLR,,0.00,WeatherDisplay:10.37,2013-07-17 21:39:00,
2013-07-17 13:44:00,74.4,57.2,30.02,NNW,347,0.0,0.0,55,0.00,CLR,,0.00,WeatherDisplay:10.37,2013-07-17 21:44:00,
2013-07-17 13:49:00,74.7,58.0,30.01,NNW,347,0.0,0.0,56,0.00,CLR,,0.00,WeatherDisplay:10.37,2013-07-17 21:49:00,
2013-07-17 13:54:00,74.8,57.0,30.01,NNW,347,0.0,0.0,54,0.00,CLR,,0.00,WeatherDisplay:10.37,2013-07-17 21:54:00,
2013-07-17 13:59:00,75.0,57.7,30.02,NNW,347,0.0,0.0,55,0.00,CLR,,0.00,WeatherDisplay:10.37,2013-07-17 21:59:00,
2013-07-17 14:04:00,75.3,57.5,30.01,NNW,347,0.0,0.0,54,0.00,CLR,,0.00,WeatherDisplay:10.37,2013-07-17 22:04:00,
2013-07-17 14:09:00,75.7,57.9,30.01,NNW,347,0.0,0.0,54,0.00,CLR,,0.00,WeatherDisplay:10.37,2013-07-17 22:09:00,
2013-07-17 14:14:00,75.7,57.9,30.01,NNW,347,0.0,0.0,54,0.00,CLR,,0.00,WeatherDisplay:10.37,2013-07-17 22:14:00,
2013-07-17 14:19:00,75.6,57.3,30.02,NNW,347,0.0,0.0,53,0.00,CLR,,0.00,WeatherDisplay:10.37,2013-07-17 22:19:00,
2013-07-17 14:24:00,75.4,57.6,30.01,NNW,347,0.0,0.0,54,0.00,CLR,,0.00,WeatherDisplay:10.37,2013-07-17 22:24:00,
2013-07-17 14:29:00,75.0,57.2,30.01,NNW,348,0.0,0.0,54,0.00,CLR,,0.00,WeatherDisplay:10.37,2013-07-17 22:29:00,
2013-07-17 14:34:00,74.6,57.9,30.01,NNW,347,0.0,0.0,56,0.00,CLR,,0.00,WeatherDisplay:10.37,2013-07-17 22:34:00,
2013-07-17 14:39:00,74.5,57.3,30.01,NNW,347,0.0,0.0,55,0.00,CLR,,0.00,WeatherDisplay:10.37,2013-07-17 22:39:00,
2013-07-17 14:44:00,74.9,57.6,30.01,NNW,347,0.0,0.0,55,0.00,CLR,,0.00,WeatherDisplay:10.37,2013-07-17 22:44:00,
2013-07-17 14:49:00,75.7,57.4,30.01,NNW,347,0.0,0.0,53,0.00,CLR,,0.00,WeatherDisplay:10.37,2013-07-17 22:49:00,
2013-07-17 14:54:00,76.6,58.7,30.02,NNW,347,0.0,0.0,54,0.00,CLR,,0.00,WeatherDisplay:10.37,2013-07-17 22:54:00,
2013-07-17 14:59:00,76.5,58.6,30.01,NNW,347,0.0,0.0,54,0.00,CLR,,0.00,WeatherDisplay:10.37,2013-07-17 22:59:00,
2013-07-17 15:04:00,76.4,58.5,30.01,NNW,347,0.0,0.0,54,0.00,CLR,,0.00,WeatherDisplay:10.37,2013-07-17 23:04:00,
2013-07-17 15:09:00,76.2,58.9,30.01,NNW,347,0.0,0.0,55,0.00,CLR,,0.00,WeatherDisplay:10.37,2013-07-17 23:09:00,
2013-07-17 15:14:00,76.1,58.2,30.01,NNW,347,0.0,0.0,54,0.00,CLR,,0.00,WeatherDisplay:10.37,2013-07-17 23:14:00,
2013-07-17 15:19:00,75.8,58.5,30.01,NNW,347,0.0,0.0,55,0.00,CLR,,0.00,WeatherDisplay:10.37,2013-07-17 23:19:00,
2013-07-17 15:24:00,75.5,58.7,30.01,NNW,347,0.0,0.0,56,0.00,CLR,,0.00,WeatherDisplay:10.37,2013-07-17 23:24:00,
2013-07-17 15:29:00,75.4,58.1,30.01,NNW,347,0.0,0.0,55,0.00,CLR,,0.00,WeatherDisplay:10.37,2013-07-17 23:29:00,
2013-07-17 15:34:00,75.4,58.1,30.01,NNW,347,0.0,0.0,55,0.00,CLR,,0.00,WeatherDisplay:10.37,2013-07-17 23:34:00,
2013-07-17 15:39:00,75.5,58.7,30.01,NNW,347,0.0,0.0,56,0.00,CLR,,0.00,WeatherDisplay:10.37,2013-07-17 23:39:00,
2013-07-17 15:44:00,75.4,59.6,30.02,NNW,347,0.0,0.0,58,0.00,CLR,,0.00,WeatherDisplay:10.37,2013-07-17 23:44:00,
2013-07-17 15:49:00,75.6,59.3,30.02,NNW,347,0.0,0.0,57,0.00,CLR,,0.00,WeatherDisplay:10.37,2013-07-17 23:49:00,
2013-07-17 15:54:00,75.6,58.8,30.02,NNW,347,0.0,0.0,56,0.00,CLR,,0.00,WeatherDisplay:10.37,2013-07-17 23:54:00,
2013-07-17 15:59:00,75.1,58.8,30.02,NNW,347,0.0,0.0,57,0.00,CLR,,0.00,WeatherDisplay:10.37,2013-07-17 23:59:00,
2013-07-17 16:04:00,74.6,58.8,30.01,NNW,347,0.0,0.0,58,0.00,CLR,,0.00,WeatherDisplay:10.37,2013-07-18 00:04:00,
2013-07-17 16:09:00,74.2,58.9,30.02,NNW,347,0.0,0.0,59,0.00,CLR,,0.00,WeatherDisplay:10.37,2013-07-18 00:09:00,
2013-07-17 16:14:00,74.3,59.0,30.02,NNW,347,0.0,0.0,59,0.00,CLR,,0.00,WeatherDisplay:10.37,2013-07-18 00:14:00,
2013-07-17 16:19:00,74.4,59.1,30.02,NNW,347,0.0,0.0,59,0.00,CLR,,0.00,WeatherDisplay:10.37,2013-07-18 00:19:00,
2013-07-17 16:24:00,74.8,59.5,30.01,NNW,347,0.0,0.0,59,0.00,CLR,,0.00,WeatherDisplay:10.37,2013-07-18 00:24:00,
2013-07-17 16:29:00,75.7,58.9,30.01,NNW,347,0.0,0.0,56,0.00,CLR,,0.00,WeatherDisplay:10.37,2013-07-18 00:29:00,
2013-07-17 16:34:00,76.9,58.5,30.01,NNW,347,0.0,0.0,53,0.00,CLR,,0.00,WeatherDisplay:10.37,2013-07-18 00:34:00,
2013-07-17 16:39:00,78.0,57.9,30.01,NNW,347,0.0,0.0,50,0.00,CLR,,0.00,WeatherDisplay:10.37,2013-07-18 00:39:00,
2013-07-17 16:44:00,78.7,59.0,30.01,NNW,347,0.0,0.0,51,0.00,CLR,,0.00,WeatherDisplay:10.37,2013-07-18 00:44:00,
2013-07-17 16:49:00,79.4,58.6,30.01,NNW,347,0.0,0.0,49,0.00,CLR,,0.00,WeatherDisplay:10.37,2013-07-18 00:49:00,
2013-07-17 16:54:00,79.5,58.1,30.01,NNW,347,0.0,0.0,48,0.00,CLR,,0.00,WeatherDisplay:10.37,2013-07-18 00:54:00,
2013-07-17 16:59:00,79.1,57.7,30.01,NNW,347,0.0,0.0,48,0.00,CLR,,0.00,WeatherDisplay:10.37,2013-07-18 00:59:00,
2013-07-17 17:04:00,79.1,57.1,30.01,NNW,347,0.0,0.0,47,0.00,CLR,,0.00,WeatherDisplay:10.37,2013-07-18 01:04:00,
2013-07-17 17:09:00,79.6,57.6,30.01,NNW,347,0.0,0.0,47,0.00,CLR,,0.00,WeatherDisplay:10.37,2013-07-18 01:09:00,
2013-07-17 17:14:00,79.6,58.2,30.01,NNW,347,0.0,0.0,48,0.00,CLR,,0.00,WeatherDisplay:10.37,2013-07-18 01:14:00,
2013-07-17 17:19:00,79.3,58.5,30.01,NNW,347,0.0,0.0,49,0.00,CLR,,0.00,WeatherDisplay:10.37,2013-07-18 01:19:00,
2013-07-17 17:24:00,78.6,57.8,30.01,NNW,347,0.0,0.0,49,0.00,CLR,,0.00,WeatherDisplay:10.37,2013-07-18 01:24:00,
2013-07-17 17:29:00,78.1,58.5,30.00,NNW,347,0.0,0.0,51,0.00,CLR,,0.00,WeatherDisplay:10.37,2013-07-18 01:29:00,
2013-07-17 17:34:00,77.6,58.0,30.00,NNW,347,0.0,0.0,51,0.00,CLR,,0.00,WeatherDisplay:10.37,2013-07-18 01:34:00,
2013-07-17 17:39:00,77.0,58.0,30.00,NNW,347,0.0,0.0,52,0.00,CLR,,0.00,WeatherDisplay:10.37,2013-07-18 01:39:00,
2013-07-17 17:44:00,75.9,58.6,30.00,NNW,347,0.0,0.0,55,0.00,CLR,,0.00,WeatherDisplay:10.37,2013-07-18 01:44:00,
2013-07-17 17:49:00,75.1,57.8,30.00,NNW,347,0.0,0.0,55,0.00,CLR,,0.00,WeatherDisplay:10.37,2013-07-18 01:49:00,
2013-07-17 17:54:00,75.1,58.3,30.00,NNW,347,0.0,0.0,56,0.00,CLR,,0.00,WeatherDisplay:10.37,2013-07-18 01:54:00,
2013-07-17 17:59:00,75.4,58.1,30.00,NNW,347,0.0,0.0,55,0.00,CLR,,0.00,WeatherDisplay:10.37,2013-07-18 01:59:00,
2013-07-17 18:04:00,75.3,58.5,30.00,NNW,347,0.0,0.0,56,0.00,CLR,,0.00,WeatherDisplay:10.37,2013-07-18 02:04:00,
2013-07-17 18:09:00,75.6,58.3,30.00,NNW,347,0.0,0.0,55,0.00,CLR,,0.00,WeatherDisplay:10.37,2013-07-18 02:09:00,
2013-07-17 18:14:00,75.9,58.6,30.00,NNW,347,0.0,0.0,55,0.00,CLR,,0.00,WeatherDisplay:10.37,2013-07-18 02:14:00,
2013-07-17 18:19:00,76.1,58.8,30.00,NNW,347,0.0,0.0,55,0.00,CLR,,0.00,WeatherDisplay:10.37,2013-07-18 02:19:00,
2013-07-17 18:24:00,75.8,58.5,30.00,NNW,347,0.0,0.0,55,0.00,CLR,,0.00,WeatherDisplay:10.37,2013-07-18 02:24:00,
2013-07-17 18:29:00,75.3,58.5,30.00,NNW,347,0.0,0.0,56,0.00,CLR,,0.00,WeatherDisplay:10.37,2013-07-18 02:29:00,
2013-07-17 18:34:00,75.0,58.2,30.00,NNW,347,0.0,0.0,56,0.00,CLR,,0.00,WeatherDisplay:10.37,2013-07-18 02:34:00,
2013-07-17 18:39:00,74.9,59.1,30.00,NNW,346,0.0,0.0,58,0.00,CLR,,0.00,WeatherDisplay:10.37,2013-07-18 02:39:00,
2013-07-17 18:44:00,75.1,58.8,30.00,NNW,346,0.0,0.0,57,0.00,CLR,,0.00,WeatherDisplay:10.37,2013-07-18 02:44:00,
2013-07-17 18:49:00,75.1,58.8,30.00,NNW,347,0.0,0.0,57,0.00,CLR,,0.00,WeatherDisplay:10.37,2013-07-18 02:49:00,
2013-07-17 18:54:00,74.0,58.8,30.00,NNW,347,0.0,0.0,59,0.00,CLR,,0.00,WeatherDisplay:10.37,2013-07-18 02:54:00,
2013-07-17 18:59:00,73.5,58.3,30.00,NNW,347,0.0,0.0,59,0.00,CLR,,0.00,WeatherDisplay:10.37,2013-07-18 02:59:00,
2013-07-17 19:04:00,73.2,58.5,30.00,NNW,347,0.0,0.0,60,0.00,CLR,,0.00,WeatherDisplay:10.37,2013-07-18 03:04:00,
2013-07-17 19:09:00,73.0,58.3,30.01,NNW,347,0.0,0.0,60,0.00,CLR,,0.00,WeatherDisplay:10.37,2013-07-18 03:09:00,
2013-07-17 19:14:00,72.8,58.1,30.01,NNW,347,0.0,0.0,60,0.00,CLR,,0.00,WeatherDisplay:10.37,2013-07-18 03:14:00,
2013-07-17 19:19:00,72.4,58.2,30.01,NNW,348,0.0,0.0,61,0.00,CLR,,0.00,WeatherDisplay:10.37,2013-07-18 03:19:00,
2013-07-17 19:24:00,72.2,58.0,30.01,NNW,348,0.0,0.0,61,0.00,CLR,,0.00,WeatherDisplay:10.37,2013-07-18 03:24:00,
2013-07-17 19:29:00,72.2,58.0,30.01,NNW,348,0.0,0.0,61,0.00,CLR,,0.00,WeatherDisplay:10.37,2013-07-18 03:29:00,
2013-07-17 19:34:00,72.3,57.6,30.01,NNW,348,0.0,0.0,60,0.00,CLR,,0.00,WeatherDisplay:10.37,2013-07-18 03:34:00,
2013-07-17 19:39:00,72.4,58.2,30.01,NNW,348,0.0,0.0,61,0.00,CLR,,0.00,WeatherDisplay:10.37,2013-07-18 03:39:00,
2013-07-17 19:44:00,72.5,58.3,30.01,NNW,348,0.0,0.0,61,0.00,CLR,,0.00,WeatherDisplay:10.37,2013-07-18 03:44:00,
2013-07-17 19:49:00,72.6,57.9,30.01,NNW,348,0.0,0.0,60,0.00,CLR,,0.00,WeatherDisplay:10.37,2013-07-18 03:49:00,
2013-07-17 19:54:00,72.7,58.0,30.01,NNW,348,0.0,0.0,60,0.00,CLR,,0.00,WeatherDisplay:10.37,2013-07-18 03:54:00,
2013-07-17 19:59:00,72.8,57.6,30.01,NNW,347,0.0,0.0,59,0.00,CLR,,0.00,WeatherDisplay:10.37,2013-07-18 03:59:00,
2013-07-17 20:01:00,72.7,57.5,30.01,NNW,347,0.0,0.0,59,0.00,CLR,,0.00,WeatherDisplay:10.37,2013-07-18 04:01:00,
2013-07-17 20:06:00,72.6,57.4,30.01,NNW,347,0.0,0.0,59,0.00,CLR,,0.00,WeatherDisplay:10.37,2013-07-18 04:06:00,
2013-07-17 20:11:00,72.6,57.4,30.01,NNW,347,0.0,0.0,59,0.00,CLR,,0.00,WeatherDisplay:10.37,2013-07-18 04:11:00,
2013-07-17 20:16:00,72.4,57.3,30.01,NNW,347,0.0,0.0,59,0.00,CLR,,0.00,WeatherDisplay:10.37,2013-07-18 04:16:00,
2013-07-17 20:21:00,72.4,57.3,30.01,NNW,347,0.0,0.0,59,0.00,CLR,,0.00,WeatherDisplay:10.37,2013-07-18 04:21:00,
2013-07-17 20:26:00,72.4,56.8,30.00,NNW,347,0.0,0.0,58,0.00,CLR,,0.00,WeatherDisplay:10.37,2013-07-18 04:26:00,
2013-07-17 20:31:00,72.3,57.6,30.01,NNW,347,0.0,0.0,60,0.00,CLR,,0.00,WeatherDisplay:10.37,2013-07-18 04:31:00,
2013-07-17 20:36:00,72.1,57.0,30.01,NNW,347,0.0,0.0,59,0.00,CLR,,0.00,WeatherDisplay:10.37,2013-07-18 04:36:00,
2013-07-17 20:41:00,72.1,57.0,30.01,NNW,347,0.0,0.0,59,0.00,CLR,,0.00,WeatherDisplay:10.37,2013-07-18 04:41:00,
2013-07-17 20:46:00,72.1,57.4,30.02,NNW,347,0.0,0.0,60,0.00,CLR,,0.00,WeatherDisplay:10.37,2013-07-18 04:46:00,
2013-07-17 20:51:00,72.3,57.2,30.01,NNW,347,0.0,0.0,59,0.00,CLR,,0.00,WeatherDisplay:10.37,2013-07-18 04:51:00,
2013-07-17 20:56:00,72.4,57.3,30.01,NNW,347,0.0,0.0,59,0.00,CLR,,0.00,WeatherDisplay:10.37,2013-07-18 04:56:00,
2013-07-17 21:01:00,72.4,57.3,30.01,NNW,347,0.0,0.0,59,0.00,CLR,,0.00,WeatherDisplay:10.37,2013-07-18 05:01:00,
2013-07-17 21:06:00,72.2,57.1,30.01,NNW,347,0.0,0.0,59,0.00,CLR,,0.00,WeatherDisplay:10.37,2013-07-18 05:06:00,
2013-07-17 21:11:00,72.1,57.0,30.01,NNW,347,0.0,0.0,59,0.00,CLR,,0.00,WeatherDisplay:10.37,2013-07-18 05:11:00,
2013-07-17 21:16:00,72.0,56.9,30.01,NNW,347,0.0,0.0,59,0.00,CLR,,0.00,WeatherDisplay:10.37,2013-07-18 05:16:00,
2013-07-17 21:21:00,71.8,57.2,30.01,NNW,347,0.0,0.0,60,0.00,CLR,,0.00,WeatherDisplay:10.37,2013-07-18 05:21:00,
2013-07-17 21:26:00,71.6,57.0,30.02,NNW,347,0.0,0.0,60,0.00,CLR,,0.00,WeatherDisplay:10.37,2013-07-18 05:26:00,
2013-07-17 21:31:00,71.5,56.4,30.02,NNW,347,0.0,0.0,59,0.00,CLR,,0.00,WeatherDisplay:10.37,2013-07-18 05:31:00,
2013-07-17 21:36:00,71.5,56.9,30.02,NNW,347,0.0,0.0,60,0.00,CLR,,0.00,WeatherDisplay:10.37,2013-07-18 05:36:00,
2013-07-17 21:41:00,71.4,56.8,30.02,NNW,347,0.0,0.0,60,0.00,CLR,,0.00,WeatherDisplay:10.37,2013-07-18 05:41:00,
2013-07-17 21:46:00,71.3,56.7,30.02,NNW,347,0.0,0.0,60,0.00,CLR,,0.00,WeatherDisplay:10.37,2013-07-18 05:46:00,
2013-07-17 21:51:00,71.2,56.6,30.02,NNW,347,0.0,0.0,60,0.00,CLR,,0.00,WeatherDisplay:10.37,2013-07-18 05:51:00,
2013-07-17 21:56:00,71.2,56.6,30.02,NNW,347,0.0,0.0,60,0.00,CLR,,0.00,WeatherDisplay:10.37,2013-07-18 05:56:00,
2013-07-17 22:01:00,71.1,57.0,30.03,NNW,347,0.0,0.0,61,0.00,CLR,,0.00,WeatherDisplay:10.37,2013-07-18 06:01:00,
2013-07-17 22:06:00,71.0,56.4,30.03,NNW,347,0.0,0.0,60,0.00,CLR,,0.00,WeatherDisplay:10.37,2013-07-18 06:06:00,
2013-07-17 22:11:00,71.0,56.4,30.03,NNW,347,0.0,0.0,60,0.00,CLR,,0.00,WeatherDisplay:10.37,2013-07-18 06:11:00,
2013-07-17 22:16:00,70.9,56.8,30.03,NNW,347,0.0,0.0,61,0.00,CLR,,0.00,WeatherDisplay:10.37,2013-07-18 06:16:00,
2013-07-17 22:21:00,70.8,56.7,30.03,NNW,347,0.0,0.0,61,0.00,CLR,,0.00,WeatherDisplay:10.37,2013-07-18 06:21:00,
2013-07-17 22:26:00,70.6,56.5,30.03,NNW,347,0.0,0.0,61,0.00,CLR,,0.00,WeatherDisplay:10.37,2013-07-18 06:26:00,
2013-07-17 22:31:00,70.6,56.5,30.03,NNW,347,0.0,0.0,61,0.00,CLR,,0.00,WeatherDisplay:10.37,2013-07-18 06:31:00,